DLH407 EVRA-EPGD

Flight info

Callsign DLH407
Flight time N/A
Altitude 36000
Route VALED DCT ADAXA DCT NINTA DCT DIPEB DCT ANFEV DCT PENOR/N0457F370 N133 DOMAG T240 OGDAV
Aircraft B38M/M-SDE1FGHILORVWXY/HB1

Departure

Time 2026-05-04 17:27
Airport Riga International Airport (EVRA)

Arrival

Time N/A
Airport Gdańsk Lech Wałęsa Airport (EPGD)
Time Latitude Longitude Altitude Speed Heading
2026-05-04 17:14 56.91826 23.97637 46 ft 0 kts 275°
2026-05-04 17:20 56.91825 23.97661 46 ft 2 kts 275°
2026-05-04 17:20 56.91820 23.97694 46 ft 3 kts 297°
2026-05-04 17:21 56.91791 23.97736 46 ft 0 kts 345°
2026-05-04 17:23 56.91792 23.97735 46 ft 1 kts 345°
2026-05-04 17:23 56.91871 23.97735 46 ft 9 kts
2026-05-04 17:24 56.91943 23.97721 46 ft 10 kts 310°
2026-05-04 17:24 56.92145 23.97468 46 ft 21 kts
2026-05-04 17:25 56.92307 23.97495 46 ft 26 kts
2026-05-04 17:25 56.92661 23.97560 46 ft 35 kts
2026-05-04 17:26 56.92952 23.97446 46 ft 15 kts 276°
2026-05-04 17:26 56.92913 23.97217 46 ft 5 kts 185°
2026-05-04 17:27 56.91782 23.97024 78 ft 162 kts 185°
2026-05-04 17:27 56.89352 23.96777 2079 ft 189 kts 181°
2026-05-04 17:28 56.86481 23.96575 3898 ft 222 kts 185°
2026-05-04 17:29 56.82692 23.90641 6552 ft 268 kts 239°
2026-05-04 17:29 56.79288 23.82255 9757 ft 282 kts 230°
2026-05-04 17:30 56.75059 23.73719 11955 ft 327 kts 225°
2026-05-04 17:31 56.71739 23.67491 13289 ft 352 kts 226°
2026-05-04 17:31 56.66572 23.57703 15772 ft 366 kts 226°
2026-05-04 17:32 56.63009 23.50961 17284 ft 374 kts 226°
2026-05-04 17:33 56.58227 23.39588 19353 ft 386 kts 249°
2026-05-04 17:33 56.57701 23.34812 19987 ft 390 kts 266°
2026-05-04 17:34 56.59809 23.20479 21843 ft 401 kts 290°
2026-05-04 17:34 56.60688 23.15657 22431 ft 404 kts 286°
2026-05-04 17:35 56.63091 23.00833 24104 ft 415 kts 287°
2026-05-04 17:35 56.64756 22.90713 25150 ft 421 kts 287°
2026-05-04 17:35 56.65597 22.85587 25644 ft 425 kts 287°
2026-05-04 17:36 56.66443 22.80421 26129 ft 428 kts 287°
2026-05-04 17:36 56.67293 22.75213 26599 ft 431 kts 286°
2026-05-04 17:36 56.68145 22.69975 27056 ft 434 kts 286°
2026-05-04 17:36 56.69003 22.64685 27502 ft 437 kts 286°
2026-05-04 17:37 56.69863 22.59366 27941 ft 440 kts 286°
2026-05-04 17:37 56.70727 22.54011 28364 ft 443 kts 286°
2026-05-04 17:37 56.71453 22.48558 28738 ft 446 kts 277°
2026-05-04 17:37 56.71425 22.42916 29160 ft 448 kts 263°
2026-05-04 17:38 56.70965 22.37295 29557 ft 451 kts 261°
2026-05-04 17:38 56.70429 22.31648 29938 ft 453 kts 260°
2026-05-04 17:38 56.69863 22.25982 30317 ft 456 kts 259°
2026-05-04 17:38 56.69277 22.20305 30693 ft 459 kts 259°
2026-05-04 17:39 56.68076 22.08907 31409 ft 464 kts 259°
2026-05-04 17:39 56.67461 22.03122 31762 ft 466 kts 259°
2026-05-04 17:39 56.66839 21.97299 32140 ft 468 kts 259°
2026-05-04 17:40 56.66217 21.91510 32622 ft 466 kts 259°
2026-05-04 17:40 56.65594 21.85734 33090 ft 465 kts 259°
2026-05-04 17:40 56.64970 21.79972 33546 ft 465 kts 259°
2026-05-04 17:40 56.64343 21.74215 33994 ft 464 kts 259°
2026-05-04 17:41 56.63715 21.68470 34434 ft 463 kts 259°
2026-05-04 17:41 56.63088 21.62758 34857 ft 462 kts 258°
2026-05-04 17:41 56.62454 21.57010 35264 ft 461 kts 258°
2026-05-04 17:41 56.61823 21.51320 35658 ft 460 kts 258°
2026-05-04 17:42 56.61197 21.45692 35981 ft 461 kts 258°
2026-05-04 17:42 56.60557 21.39973 36003 ft 460 kts 258°
2026-05-04 17:42 56.59275 21.28585 36000 ft 459 kts 258°
2026-05-04 17:43 56.57992 21.17283 36000 ft 459 kts 258°
2026-05-04 17:43 56.56692 21.05935 36000 ft 459 kts 258°
2026-05-04 17:44 56.55383 20.94598 36000 ft 459 kts 258°
2026-05-04 17:44 56.54063 20.83272 36000 ft 459 kts 258°
2026-05-04 17:45 56.52732 20.71943 36000 ft 459 kts 258°
2026-05-04 17:45 56.51391 20.60631 35999 ft 459 kts 258°
2026-05-04 17:46 56.50040 20.49316 35999 ft 459 kts 258°
2026-05-04 17:46 56.48678 20.38013 35999 ft 459 kts 257°
2026-05-04 17:47 56.47306 20.26716 35999 ft 459 kts 257°
2026-05-04 17:47 56.45924 20.15439 35999 ft 459 kts 257°
2026-05-04 17:48 56.44541 20.04230 35999 ft 459 kts 257°
2026-05-04 17:48 56.43136 19.92941 36000 ft 459 kts 257°
2026-05-04 17:49 56.41722 19.81671 36000 ft 459 kts 257°
2026-05-04 17:49 56.40306 19.70473 35999 ft 459 kts 257°
2026-05-04 17:50 56.38873 19.59231 35999 ft 459 kts 257°
2026-05-04 17:50 56.37430 19.47998 36000 ft 459 kts 257°
2026-05-04 17:51 56.35976 19.36770 36000 ft 459 kts 257°
2026-05-04 17:51 56.34511 19.25537 36000 ft 459 kts 257°
2026-05-04 17:52 56.33049 19.14392 36000 ft 459 kts 257°
2026-05-04 17:52 56.31570 19.03196 36000 ft 459 kts 256°
2026-05-04 17:53 56.30082 18.91988 35999 ft 459 kts 257°
2026-05-04 17:53 56.28828 18.80701 35999 ft 459 kts 258°
2026-05-04 17:54 56.27858 18.75222 35991 ft 460 kts 245°
2026-05-04 17:54 56.26129 18.70405 36002 ft 460 kts 230°
2026-05-04 17:54 56.23816 18.66436 35998 ft 460 kts 218°
2026-05-04 17:54 56.21112 18.63396 35997 ft 460 kts 205°
2026-05-04 17:55 56.18094 18.61534 36005 ft 460 kts 194°
2026-05-04 17:55 56.18011 18.61498 36005 ft 460 kts 194°
2026-05-04 17:55 56.13672 18.59608 35998 ft 459 kts 194°
2026-05-04 17:56 56.07474 18.56793 35999 ft 459 kts 194°
2026-05-04 17:56 56.06245 18.56227 35999 ft 459 kts 194°
2026-05-04 17:57 56.00050 18.53369 35999 ft 459 kts 194°
2026-05-04 17:57 55.93857 18.50519 35999 ft 459 kts 194°
2026-05-04 17:58 55.87660 18.47676 35999 ft 459 kts 194°
2026-05-04 17:58 55.81506 18.44862 35999 ft 459 kts 194°
2026-05-04 17:59 55.75310 18.42038 35999 ft 459 kts 194°
2026-05-04 18:00 55.66020 18.37822 35999 ft 459 kts 194°
2026-05-04 18:00 55.59815 18.35017 35999 ft 459 kts 194°
2026-05-04 18:01 55.53618 18.32225 35999 ft 459 kts 194°
2026-05-04 18:01 55.47420 18.29441 35999 ft 459 kts 194°
2026-05-04 18:02 55.41234 18.26672 35196 ft 457 kts 194°
2026-05-04 18:02 55.38138 18.25289 34280 ft 462 kts 194°
2026-05-04 18:02 55.35009 18.23895 33362 ft 466 kts 194°
2026-05-04 18:02 55.31896 18.22509 32513 ft 467 kts 194°
2026-05-04 18:03 55.28743 18.21108 31658 ft 469 kts 194°